Weather History for Oceana NAS, VA

Change the Weather History Date:

Thursday, June 13, 2013

  Actual Average Record
Temperature  
Mean Temperature 84 °F -  
Max Temperature 96 °F 79 °F 96 °F (2013)
Min Temperature 71 °F 63 °F 51 °F (2004)
Cooling Degree Days 19    
Growing Degree Days 34 (Base 50)    
Moisture  
Dew Point 69 °F    
Average Humidity 71    
Maximum Humidity 84    
Minimum Humidity 43    
Precipitation  
Precipitation 0.04 in - - ()
Sea Level Pressure  
Sea Level Pressure 29.66 in    
Wind  
Wind Speed 12 mph (WSW)    
Max Wind Speed 40 mph    
Max Gust Speed 52 mph    
Visibility 10 miles    
Events Rain , Thunderstorm    
Averages and records for this station are not official NWS values.
T = Trace of Precipitation, MM = Missing Value Source: NWS Daily Summary

Daily Weather History Graph

Daily Weather History Graph

Search for Another Location

Airport:

Trip Planner

Search our weather history database for the weather conditions in past years. The results will help you decide how hot, cold, wet, or windy it might be!

Date:

Astronomy

Jun. 13, 2013 Rise Set
Actual Time 5:44 AM EDT 8:24 PM EDT
Civil Twilight 5:13 AM EDT 8:54 PM EDT
Nautical Twilight 4:35 AM EDT 9:33 PM EDT
Astronomical Twilight 3:52 AM EDT 10:15 PM EDT
Moon 10:13 AM EDT (6/13) 11:36 PM EDT (6/13)
Length of Visible Light 15h 41m
Length of Day
14h 39m
Waxing Crescent, 21% of the Moon is Illuminated
Jun 13
Waxing Crescent
Jun 16
First Quarter
Jun 23
Full
Jun 30
Last Quarter
Jul 8
New

Hourly Weather History & Observations

Time (EDT) Temp. Heat Index Dew Point Humidity Pressure Visibility Wind Dir Wind Speed Gust Speed Precip Events Conditions
12:56 AM 78.1 °F - 71.1 °F 79% 29.84 in 10.0 mi SW 5.8 mph - N/A   Clear
1:56 AM 78.1 °F - 71.1 °F 79% 29.81 in 10.0 mi SSW 5.8 mph - N/A   Clear
2:56 AM 77.0 °F - 71.1 °F 82% 29.79 in 10.0 mi WSW 6.9 mph - N/A   Scattered Clouds
3:56 AM 78.1 °F - 71.1 °F 79% 29.79 in 10.0 mi SSW 6.9 mph - N/A   Overcast
4:56 AM 78.1 °F - 70.0 °F 76% 29.79 in 10.0 mi SW 5.8 mph - N/A   Mostly Cloudy
5:56 AM 77.0 °F - 71.1 °F 82% 29.77 in 10.0 mi SSW 8.1 mph - N/A   Mostly Cloudy
6:56 AM 78.1 °F - 71.1 °F 79% 29.75 in 10.0 mi SW 11.5 mph - N/A   Mostly Cloudy
7:56 AM 80.1 °F 84.2 °F 73.0 °F 79% 29.74 in 10.0 mi SW 11.5 mph - N/A   Mostly Cloudy
8:56 AM 82.9 °F 89.4 °F 73.9 °F 74% 29.73 in 10.0 mi SW 12.7 mph - N/A   Mostly Cloudy
9:56 AM 84.9 °F 93.3 °F 75.0 °F 72% 29.73 in 10.0 mi WSW 11.5 mph - N/A   Mostly Cloudy
10:56 AM 89.1 °F 98.0 °F 73.9 °F 61% 29.71 in 10.0 mi SW 13.8 mph - N/A   Mostly Cloudy
11:56 AM 91.0 °F 100.4 °F 73.9 °F 57% 29.70 in 10.0 mi WSW 12.7 mph - N/A   Mostly Cloudy
12:56 PM 91.9 °F 99.5 °F 72.0 °F 52% 29.65 in 10.0 mi SW 16.1 mph - N/A   Mostly Cloudy
1:56 PM 95.0 °F 102.5 °F 71.1 °F 46% 29.61 in 10.0 mi SW 16.1 mph - N/A   Mostly Cloudy
2:56 PM 96.1 °F 102.9 °F 70.0 °F 43% 29.57 in 10.0 mi SW 17.3 mph 28.8 mph N/A   Scattered Clouds
3:56 PM 95.0 °F 103.2 °F 72.0 °F 47% 29.53 in 10.0 mi SSW 19.6 mph 28.8 mph N/A   Scattered Clouds
4:56 PM 95.0 °F 100.7 °F 69.1 °F 43% 29.52 in 10.0 mi SW 24.2 mph 32.2 mph N/A   Scattered Clouds
5:56 PM 79.0 °F - 64.0 °F 60% 29.58 in 10.0 mi NW 40.3 mph 51.8 mph N/A   Mostly Cloudy
6:20 PM 75.2 °F - 64.4 °F 69% 29.58 in 10.0 mi NW 20.7 mph 28.8 mph 0.00 in Rain Light Rain
6:41 PM 73.4 °F - 66.2 °F 78% 29.59 in 10.0 mi West 18.4 mph 28.8 mph 0.03 in   Mostly Cloudy
6:56 PM 73.9 °F - 66.0 °F 76% 29.59 in 10.0 mi West 16.1 mph 25.3 mph 0.03 in Rain Light Rain
7:11 PM 73.4 °F - 66.2 °F 78% 29.58 in 10.0 mi West 12.7 mph - 0.00 in Rain , Thunderstorm Light Thunderstorms and Rain
7:41 PM 73.4 °F - 66.2 °F 78% 29.60 in 10.0 mi West 20.7 mph 27.6 mph 0.01 in   Mostly Cloudy
7:56 PM 73.0 °F - 66.0 °F 79% 29.62 in 10.0 mi WSW 18.4 mph 26.5 mph 0.01 in   Mostly Cloudy
8:56 PM 72.0 °F - 66.0 °F 81% 29.58 in 10.0 mi West 12.7 mph 17.3 mph N/A   Mostly Cloudy
9:56 PM 72.0 °F - 66.0 °F 81% 29.62 in 10.0 mi WSW 13.8 mph - N/A   Mostly Cloudy
10:56 PM 72.0 °F - 66.0 °F 81% 29.62 in 10.0 mi West 12.7 mph - N/A   Mostly Cloudy
11:56 PM 71.1 °F - 66.0 °F 84% 29.62 in 10.0 mi WSW 10.4 mph - N/A   Scattered Clouds